Home > Weather > Taipei > Past weeks

Flag for Taiwan Weather for the Past 2 Weeks in Taipei, Taiwan

Now
84 °F

Broken clouds.


Feels Like: 90 °F
Forecast: 74 / 86 °F
Wind: 14 mph from Northwest

Location: Sungshan / Taipei

Current Time: May 3, 2016 at 3:47:30 PM

Latest Report: May 3, 2016 at 3:00 PM


Visibility: N/A

Pressure: 29.80 "Hg

Humidity: 66%

Dew Point: 72 °F

Location of TaipeiLocation

Historic Weather in Taipei — Graph

°F

Taipei Temperature Yesterday

Maximum temperature yesterday: 90 °F (at 12:00 PM)
Minimum temperature yesterday: 70 °F (at 1:00 AM)
Average temperature yesterday: 81 °F

High & Low Weather Summary for the Past Weeks

 TemperatureHumidityPressure
High90 °F (Apr 21, 12:30 PM)94% (Apr 27, 2:46 AM)30.15 "Hg (Apr 27, 2:46 AM)
Low63 °F (Apr 18, 2:45 PM)39% (Apr 29, 2:30 PM)29.68 "Hg (Apr 27, 1:57 PM)
Average76 °F72%29.89 "Hg
* Reported Apr 18 2:30 PM — May 3 2:30 PM, Taipei, Weather by CustomWeather, © 2016

Note: Actual official high and low records may vary slightly from our data, if they occured in-between our weather recording intervals... More about our weather records

Advertising

Taipei Weather History for the Previous 24 Hours

Scroll right to see more
 ConditionsComfort  
Time TempWeatherWind HumidityBarometerVisibility
2:30 PM
Tue, May 3
84 °FBroken clouds.16 mph66%29.80 "HgN/A
2:00 PM86 °FBroken clouds.16 mph62%29.80 "HgN/A
1:30 PM86 °FScattered clouds.16 mph62%29.80 "HgN/A
1:00 PM90 °FScattered clouds.15 mph55%29.80 "HgN/A
12:30 PM90 °FPassing clouds.15 mph52%29.80 "HgN/A
12:00 PM90 °FPassing clouds.17 mph52%29.80 "HgN/A
11:30 AM90 °FScattered clouds.21 mph49%29.80 "HgN/A
11:00 AM88 °FScattered clouds.22 mph52%29.80 "HgN/A
10:30 AM86 °FScattered clouds.22 mph59%29.80 "HgN/A
9:30 AM82 °FScattered clouds.13 mph66%29.80 "HgN/A
9:00 AM82 °FScattered clouds.6 mph66%29.80 "HgN/A
8:30 AM81 °FBroken clouds.5 mph70%29.80 "HgN/A
8:00 AM79 °FBroken clouds.5 mph74%29.80 "HgN/A
7:30 AM77 °FSprinkles. Partly sunny.2 mph79%29.83 "HgN/A
7:00 AM77 °FRain showers. Partly sunny.9 mph79%29.83 "Hg2 mi
6:30 AM79 °FScattered showers. Partly sunny.20 mph70%29.83 "Hg5 mi
6:00 AM77 °FBroken clouds.1 mph79%29.80 "HgN/A
5:00 AM75 °FPassing clouds.1 mph78%29.77 "HgN/A
4:00 AM77 °FPassing clouds.No wind79%29.74 "HgN/A
3:00 AM77 °FPassing clouds.1 mph79%29.74 "HgN/A
2:00 AM77 °FPassing clouds.2 mph79%29.77 "HgN/A
1:00 AM79 °FPassing clouds.1 mph74%29.77 "HgN/A
12:00 AM79 °FPassing clouds.1 mph74%29.77 "HgN/A
11:30 PM
Mon, May 2
79 °FPassing clouds.2 mph74%29.80 "HgN/A
11:00 PM79 °FPassing clouds.2 mph74%29.80 "HgN/A
10:30 PM81 °FPassing clouds.3 mph66%29.80 "HgN/A
10:00 PM79 °FPassing clouds.3 mph70%29.80 "HgN/A
9:30 PM81 °FPassing clouds.2 mph66%29.83 "HgN/A
9:00 PM81 °FPassing clouds.5 mph66%29.80 "HgN/A
8:30 PM81 °FPassing clouds.6 mph66%29.80 "HgN/A
8:00 PM82 °FPassing clouds.3 mph70%29.80 "HgN/A
7:30 PM82 °FPassing clouds.2 mph70%29.80 "HgN/A
7:00 PM84 °FPassing clouds.5 mph66%29.80 "HgN/A
6:30 PM84 °FPassing clouds.9 mph58%29.77 "HgN/A
6:00 PM84 °FPassing clouds.9 mph58%29.77 "HgN/A
5:30 PM88 °FPassing clouds.2 mph55%29.77 "HgN/A
5:00 PM90 °FPassing clouds.3 mph52%29.77 "HgN/A
4:30 PM90 °FPassing clouds.5 mph49%29.77 "HgN/A
4:00 PM90 °FScattered clouds.3 mph52%29.77 "HgN/A
3:30 PM88 °FBroken clouds.6 mph52%29.77 "HgN/A
3:00 PM90 °FBroken clouds.6 mph49%29.80 "HgN/A
Weather by CustomWeather, © 2016

See weather overviewHow to use our weather pages